| time (UTC) | temp C | wind direction | speed KPH | gust KPH | rain 1hr cm | rain 24hr cm | rain mn cm | humidity % | barometer mb |
| 20260505140402 | 8 | 153 | 0.0 | 0.0 | 0.00 | 0.41 | 0.33 | 80 | 1004.8 |
| 20260505124902 | 4 | 153 | 0.0 | 0.0 | 0.00 | 0.41 | 0.33 | 81 | 1004.6 |
| 20260505123902 | 4 | 153 | 0.0 | 0.0 | 0.00 | 0.41 | 0.33 | 80 | 1004.6 |
| 20260505123402 | 4 | 153 | 0.0 | 0.0 | 0.00 | 0.41 | 0.33 | 80 | 1004.5 |
| 20260505122903 | 4 | 153 | 0.0 | 0.0 | 0.00 | 0.41 | 0.33 | 80 | 1004.4 |
| 20260505122403 | 4 | 153 | 0.0 | 0.0 | 0.00 | 0.41 | 0.33 | 80 | 1004.3 |
| 20260505121902 | 5 | 153 | 0.0 | 0.0 | 0.00 | 0.41 | 0.33 | 79 | 1004.3 |
| 20260505121403 | 5 | 153 | 0.0 | 0.0 | 0.03 | 0.41 | 0.33 | 79 | 1004.3 |
| 20260505120402 | 5 | 153 | 0.0 | 0.0 | 0.03 | 0.41 | 0.33 | 79 | 1004.2 |
| 20260505115902 | 5 | 153 | 0.0 | 0.0 | 0.03 | 0.41 | 0.33 | 79 | 1004.2 |
| 20260505115403 | 5 | 153 | 0.0 | 0.0 | 0.03 | 0.41 | 0.33 | 79 | 1004.2 |
| 20260505114902 | 5 | 153 | 0.0 | 0.0 | 0.03 | 0.41 | 0.33 | 79 | 1004.1 |
| 20260505113402 | 5 | 153 | 0.0 | 0.0 | 0.03 | 0.41 | 0.33 | 79 | 1003.9 |
| 20260505112902 | 5 | 153 | 0.0 | 0.0 | 0.05 | 0.41 | 0.33 | 80 | 1003.9 |
| 20260505112402 | 5 | 153 | 0.0 | 0.0 | 0.05 | 0.41 | 0.33 | 81 | 1003.8 |
| 20260505111903 | 5 | 153 | 0.0 | 0.0 | 0.05 | 0.41 | 0.33 | 81 | 1003.8 |
| 20260505111402 | 5 | 153 | 0.0 | 0.0 | 0.03 | 0.38 | 0.30 | 81 | 1003.7 |
| 20260505110903 | 5 | 153 | 0.0 | 0.0 | 0.03 | 0.38 | 0.30 | 82 | 1003.7 |
| 20260505110402 | 5 | 153 | 0.0 | 0.0 | 0.03 | 0.38 | 0.30 | 82 | 1003.7 |
| 20260505101903 | 7 | 153 | 0.0 | 0.0 | 0.03 | 0.36 | 0.28 | 81 | 1003.8 |
| 20260505101402 | 7 | 153 | 0.0 | 0.0 | 0.05 | 0.36 | 0.28 | 80 | 1003.8 |
| 20260505100902 | 7 | 153 | 0.0 | 0.0 | 0.05 | 0.36 | 0.28 | 79 | 1003.8 |
| 20260505100403 | 7 | 130 | 0.0 | 0.0 | 0.05 | 0.36 | 0.28 | 78 | 1003.8 |
| 20260505095902 | 7 | 153 | 0.0 | 0.0 | 0.05 | 0.36 | 0.28 | 79 | 1004.0 |
| 20260505095403 | 7 | 153 | 0.0 | 0.0 | 0.08 | 0.36 | 0.28 | 80 | 1003.9 |
| 20260505094403 | 7 | 166 | 0.0 | 0.0 | 0.08 | 0.36 | 0.28 | 82 | 1003.9 |
| 20260505093902 | 7 | 180 | 0.0 | 3.2 | 0.05 | 0.33 | 0.25 | 82 | 1003.9 |
| 20260505093403 | 7 | 196 | 0.0 | 0.0 | 0.08 | 0.33 | 0.25 | 82 | 1003.8 |
| 20260505092402 | 7 | 180 | 0.0 | 0.0 | 0.08 | 0.33 | 0.25 | 80 | 1003.9 |
| 20260505091903 | 7 | 119 | 0.0 | 0.0 | 0.10 | 0.33 | 0.25 | 79 | 1003.9 |
| 20260505091403 | 7 | 105 | 0.0 | 0.0 | 0.08 | 0.30 | 0.23 | 78 | 1003.8 |
| 20260505090902 | 8 | 105 | 0.0 | 0.0 | 0.08 | 0.30 | 0.23 | 78 | 1003.7 |
| 20260505090403 | 8 | 129 | 0.0 | 0.0 | 0.10 | 0.30 | 0.23 | 77 | 1003.7 |
| 20260505085903 | 8 | 119 | 0.0 | 0.0 | 0.10 | 0.30 | 0.23 | 76 | 1003.8 |
| 20260505085403 | 8 | 95 | 0.0 | 11.3 | 0.10 | 0.28 | 0.20 | 76 | 1003.9 |
| 20260505084902 | 8 | 109 | 1.6 | 16.1 | 0.10 | 0.28 | 0.20 | 76 | 1004.0 |
| 20260505083902 | 8 | 97 | 4.8 | 16.1 | 0.13 | 0.28 | 0.20 | 78 | 1004.1 |
| 20260505083403 | 8 | 112 | 6.4 | 22.5 | 0.10 | 0.25 | 0.18 | 78 | 1004.1 |
| 20260505082904 | 8 | 96 | 12.9 | 22.5 | 0.13 | 0.25 | 0.18 | 78 | 1004.1 |
| 20260505082403 | 8 | 107 | 8.0 | 19.3 | 0.13 | 0.25 | 0.18 | 79 | 1004.0 |
| 20260505080902 | 8 | 108 | 19.3 | 35.4 | 0.13 | 0.23 | 0.15 | 81 | 1004.1 |
| 20260505080403 | 8 | 97 | 11.3 | 27.4 | 0.10 | 0.20 | 0.13 | 82 | 1004.2 |
| 20260505075902 | 8 | 119 | 9.7 | 22.5 | 0.10 | 0.20 | 0.13 | 83 | 1004.5 |
| 20260505075403 | 8 | 113 | 11.3 | 25.7 | 0.10 | 0.18 | 0.10 | 84 | 1004.5 |
| 20260505074903 | 8 | 107 | 4.8 | 20.9 | 0.10 | 0.18 | 0.10 | 84 | 1004.7 |
| 20260505074403 | 8 | 110 | 4.8 | 14.5 | 0.08 | 0.15 | 0.08 | 83 | 1004.8 |
| 20260505073903 | 8 | 107 | 3.2 | 11.3 | 0.08 | 0.15 | 0.08 | 83 | 1004.9 |
| 20260505073403 | 8 | 144 | 4.8 | 11.3 | 0.08 | 0.15 | 0.08 | 84 | 1005.0 |
| 20260505072903 | 8 | 126 | 1.6 | 8.0 | 0.05 | 0.13 | 0.05 | 83 | 1005.0 |
| 20260505072403 | 8 | 111 | 1.6 | 11.3 | 0.05 | 0.13 | 0.05 | 83 | 1005.0 |
| 20260505071902 | 8 | 118 | 0.0 | 1.6 | 0.05 | 0.13 | 0.05 | 84 | 1005.2 |
| 20260505070904 | 8 | 184 | 0.0 | 1.6 | 0.03 | 0.10 | 0.03 | 85 | 1005.1 |
| 20260505065903 | 9 | 223 | 0.0 | 0.0 | 0.03 | 0.10 | 0.03 | 84 | 1004.8 |
| 20260505065403 | 9 | 223 | 0.0 | 0.0 | 0.00 | 0.08 | 0.00 | 84 | 1004.8 |
| 20260505064903 | 8 | 223 | 0.0 | 0.0 | 0.00 | 0.08 | 0.00 | 84 | 1004.7 |
| 20260505064403 | 8 | 223 | 0.0 | 9.7 | 0.00 | 0.08 | 0.00 | 83 | 1004.6 |
| 20260505063403 | 8 | 221 | 3.2 | 8.0 | 0.00 | 0.08 | 0.00 | 82 | 1004.5 |
| 20260505062903 | 8 | 87 | 0.0 | 0.0 | 0.00 | 0.08 | 0.00 | 82 | 1004.3 |
| 20260505062403 | 8 | 87 | 0.0 | 0.0 | 0.00 | 0.08 | 0.00 | 82 | 1004.2 |
| 20260505061904 | 8 | 87 | 0.0 | 0.0 | 0.00 | 0.08 | 0.00 | 82 | 1004.1 |
| 20260505061403 | 8 | 87 | 0.0 | 0.0 | 0.00 | 0.08 | 0.00 | 83 | 1004.0 |
| 20260505060903 | 8 | 87 | 0.0 | 0.0 | 0.00 | 0.08 | 0.00 | 83 | 1003.9 |
| 20260505055903 | 8 | 87 | 0.0 | 0.0 | 0.00 | 0.08 | 0.08 | 83 | 1003.8 |
| 20260505055403 | 8 | 87 | 0.0 | 0.0 | 0.00 | 0.08 | 0.08 | 83 | 1003.8 |
| 20260505054903 | 8 | 87 | 0.0 | 0.0 | 0.00 | 0.08 | 0.08 | 83 | 1003.8 |
| 20260505054403 | 8 | 87 | 0.0 | 0.0 | 0.00 | 0.08 | 0.08 | 83 | 1003.8 |
| 20260505053403 | 8 | 87 | 0.0 | 0.0 | 0.00 | 0.08 | 0.08 | 83 | 1004.1 |
| 20260505052903 | 8 | 87 | 0.0 | 0.0 | 0.00 | 0.08 | 0.08 | 83 | 1004.1 |
| 20260505052403 | 8 | 87 | 0.0 | 0.0 | 0.00 | 0.08 | 0.08 | 82 | 1004.3 |
| 20260505051903 | 8 | 87 | 0.0 | 0.0 | 0.00 | 0.08 | 0.08 | 82 | 1004.3 |
| 20260505051404 | 8 | 87 | 0.0 | 0.0 | 0.00 | 0.08 | 0.08 | 82 | 1004.2 |
| 20260505050904 | 8 | 87 | 0.0 | 0.0 | 0.00 | 0.08 | 0.08 | 81 | 1004.2 |
| 20260505050403 | 8 | 87 | 0.0 | 0.0 | 0.00 | 0.08 | 0.08 | 81 | 1004.2 |
| 20260505041403 | 9 | 38 | 0.0 | 0.0 | 0.03 | 0.08 | 0.08 | 81 | 1003.8 |
| 20260505040904 | 9 | 38 | 0.0 | 0.0 | 0.03 | 0.08 | 0.08 | 81 | 1003.7 |
| 20260505040403 | 9 | 24 | 0.0 | 0.0 | 0.03 | 0.08 | 0.08 | 82 | 1003.6 |
| 20260505035903 | 9 | 40 | 0.0 | 0.0 | 0.03 | 0.08 | 0.08 | 81 | 1003.6 |
| 20260505035403 | 10 | 40 | 0.0 | 0.0 | 0.05 | 0.08 | 0.08 | 79 | 1003.6 |
| 20260505034403 | 10 | 96 | 0.0 | 0.0 | 0.05 | 0.08 | 0.08 | 79 | 1003.5 |
| 20260505033903 | 10 | 98 | 0.0 | 0.0 | 0.05 | 0.08 | 0.08 | 80 | 1003.5 |
| 20260505033403 | 10 | 98 | 0.0 | 0.0 | 0.08 | 0.08 | 0.08 | 80 | 1003.3 |
| 20260505032403 | 10 | 97 | 0.0 | 0.0 | 0.08 | 0.08 | 0.08 | 80 | 1003.1 |
| 20260505031903 | 10 | 95 | 0.0 | 3.2 | 0.08 | 0.08 | 0.08 | 80 | 1003.0 |
| 20260505031403 | 10 | 86 | 0.0 | 4.8 | 0.05 | 0.05 | 0.05 | 80 | 1003.0 |
| 20260505030904 | 10 | 53 | 0.0 | 1.6 | 0.05 | 0.05 | 0.05 | 78 | 1003.0 |
| 20260505030404 | 10 | 34 | 0.0 | 0.0 | 0.05 | 0.05 | 0.05 | 76 | 1003.1 |
| 20260505025903 | 11 | 350 | 0.0 | 0.0 | 0.05 | 0.05 | 0.05 | 73 | 1003.0 |
| 20260505025404 | 11 | 344 | 0.0 | 0.0 | 0.03 | 0.03 | 0.03 | 72 | 1002.9 |
| 20260505024403 | 11 | 184 | 4.8 | 19.3 | 0.03 | 0.03 | 0.03 | 69 | 1003.3 |
| 20260505023903 | 11 | 92 | 3.2 | 19.3 | 0.03 | 0.03 | 0.03 | 69 | 1003.1 |
| 20260505022903 | 12 | 106 | 6.4 | 20.9 | 0.00 | 0.00 | 0.00 | 66 | 1002.5 |
| 20260505022403 | 12 | 85 | 3.2 | 16.1 | 0.00 | 0.00 | 0.00 | 66 | 1002.4 |
| 20260505021904 | 13 | 34 | 8.0 | 16.1 | 0.00 | 0.00 | 0.00 | 59 | 1002.4 |
| 20260505021403 | 14 | 23 | 3.2 | 11.3 | 0.00 | 0.00 | 0.00 | 51 | 1002.1 |
| 20260505020904 | 14 | 22 | 0.0 | 0.0 | 0.00 | 0.00 | 0.00 | 50 | 1002.1 |
| 20260505020404 | 15 | 346 | 0.0 | 0.0 | 0.00 | 0.00 | 0.00 | 46 | 1001.9 |
| 20260505015404 | 15 | 314 | 3.2 | 24.1 | 0.00 | 0.00 | 0.00 | 44 | 1001.6 |
| 20260505014903 | 15 | 247 | 0.0 | 0.0 | 0.00 | 0.00 | 0.00 | 43 | 1001.6 |
| 20260505013903 | 15 | 308 | 0.0 | 9.7 | 0.00 | 0.00 | 0.00 | 43 | 1001.3 |
| 20260505013404 | 16 | 225 | 1.6 | 12.9 | 0.00 | 0.00 | 0.00 | 43 | 1001.2 |
| 20260505012904 | 16 | 245 | 3.2 | 11.3 | 0.00 | 0.00 | 0.00 | 43 | 1000.8 |
| 20260505012404 | 16 | 220 | 0.0 | 8.0 | 0.00 | 0.00 | 0.00 | 43 | 1000.7 |
| 20260505011903 | 17 | 233 | 0.0 | 9.7 | 0.00 | 0.00 | 0.00 | 40 | 1000.5 |
| 20260505010403 | 17 | 241 | 0.0 | 8.0 | 0.00 | 0.00 | 0.00 | 38 | 1000.2 |
| 20260505005903 | 17 | 234 | 3.2 | 12.9 | 0.00 | 0.00 | 0.00 | 37 | 1000.2 |
| 20260505005403 | 17 | 231 | 3.2 | 14.5 | 0.00 | 0.00 | 0.00 | 37 | 1000.2 |
| 20260505004404 | 17 | 224 | 3.2 | 12.9 | 0.00 | 0.00 | 0.00 | 36 | 1000.3 |
| 20260505003904 | 17 | 232 | 8.0 | 19.3 | 0.00 | 0.00 | 0.00 | 35 | 1000.3 |
| 20260505003404 | 17 | 221 | 11.3 | 24.1 | 0.00 | 0.00 | 0.00 | 35 | 1000.3 |
| 20260505002903 | 18 | 229 | 4.8 | 19.3 | 0.00 | 0.00 | 0.00 | 35 | 1000.3 |
| 20260505002404 | 18 | 224 | 12.9 | 27.4 | 0.00 | 0.00 | 0.00 | 34 | 1000.3 |
| 20260505001901 | 18 | 225 | 8.0 | 16.1 | 0.00 | 0.00 | 0.00 | 34 | 1000.0 |
| 20260505001401 | 18 | 235 | 4.8 | 14.5 | 0.00 | 0.00 | 0.00 | 32 | 1000.1 |
| 20260505000901 | 18 | 219 | 0.0 | 4.8 | 0.00 | 0.00 | 0.00 | 30 | 1000.0 |
| 20260504235901 | 18 | 218 | 0.0 | 16.1 | 0.00 | 0.00 | 0.00 | 30 | 1000.3 |
| 20260504235401 | 18 | 235 | 17.7 | 37.0 | 0.00 | 0.00 | 0.00 | 30 | 1000.3 |
| 20260504234901 | 18 | 226 | 8.0 | 14.5 | 0.00 | 0.00 | 0.00 | 30 | 1000.2 |
| 20260504234401 | 18 | 230 | 11.3 | 19.3 | 0.00 | 0.00 | 0.00 | 31 | 1000.1 |
| 20260504233901 | 19 | 233 | 8.0 | 14.5 | 0.00 | 0.00 | 0.00 | 30 | 1000.0 |
| 20260504233402 | 19 | 224 | 3.2 | 8.0 | 0.00 | 0.00 | 0.00 | 30 | 1000.1 |
| 20260504232901 | 19 | 220 | 1.6 | 11.3 | 0.00 | 0.00 | 0.00 | 31 | 1000.1 |
| 20260504232401 | 19 | 105 | 0.0 | 0.0 | 0.00 | 0.00 | 0.00 | 31 | 999.9 |
| 20260504231902 | 19 | 105 | 0.0 | 3.2 | 0.00 | 0.00 | 0.00 | 31 | 999.9 |
| 20260504231401 | 19 | 105 | 4.8 | 11.3 | 0.00 | 0.00 | 0.00 | 31 | 999.9 |
| 20260504230401 | 19 | 73 | 1.6 | 9.7 | 0.00 | 0.00 | 0.00 | 31 | 999.9 |
| 20260504225901 | 19 | 38 | 1.6 | 9.7 | 0.00 | 0.00 | 0.00 | 31 | 1000.0 |
| 20260504225401 | 19 | 25 | 1.6 | 12.9 | 0.00 | 0.00 | 0.00 | 30 | 1000.1 |
| 20260504224901 | 19 | 92 | 1.6 | 9.7 | 0.00 | 0.00 | 0.00 | 32 | 1000.2 |
| 20260504224401 | 18 | 69 | 1.6 | 11.3 | 0.00 | 0.00 | 0.00 | 33 | 1000.1 |
| 20260504223901 | 18 | 152 | 0.0 | 0.0 | 0.00 | 0.00 | 0.00 | 33 | 1000.4 |
| 20260504223401 | 18 | 153 | 3.2 | 4.8 | 0.00 | 0.00 | 0.00 | 32 | 1000.4 |
| 20260504222901 | 18 | 96 | 1.6 | 4.8 | 0.00 | 0.00 | 0.00 | 34 | 1000.5 |
| 20260504222401 | 18 | 22 | 0.0 | 0.0 | 0.00 | 0.00 | 0.00 | 37 | 1000.5 |
| 20260504221901 | 18 | 20 | 0.0 | 0.0 | 0.00 | 0.00 | 0.00 | 30 | 1000.6 |
| 20260504221401 | 18 | 334 | 0.0 | 0.0 | 0.00 | 0.00 | 0.00 | 30 | 1000.6 |
| 20260504220901 | 19 | 334 | 0.0 | 8.0 | 0.00 | 0.00 | 0.00 | 29 | 1000.6 |
| 20260504220401 | 20 | 314 | 4.8 | 12.9 | 0.00 | 0.00 | 0.00 | 30 | 1000.5 |
| 20260504215402 | 19 | 281 | 0.0 | 9.7 | 0.00 | 0.00 | 0.00 | 32 | 1000.7 |
| 20260504214901 | 18 | 248 | 0.0 | 4.8 | 0.00 | 0.00 | 0.00 | 32 | 1000.8 |
| 20260504214401 | 18 | 330 | 0.0 | 4.8 | 0.00 | 0.00 | 0.00 | 32 | 1000.9 |
| 20260504213401 | 19 | 228 | 0.0 | 0.0 | 0.00 | 0.00 | 0.00 | 32 | 1001.0 |
| 20260504212902 | 19 | 130 | 1.6 | 8.0 | 0.00 | 0.00 | 0.00 | 32 | 1001.1 |
| 20260504212402 | 19 | 240 | 1.6 | 11.3 | 0.00 | 0.00 | 0.00 | 31 | 1001.0 |
| 20260504211901 | 20 | 135 | 1.6 | 8.0 | 0.00 | 0.00 | 0.00 | 28 | 1001.0 |
| 20260504211402 | 20 | 242 | 0.0 | 4.8 | 0.00 | 0.00 | 0.00 | 27 | 1000.8 |
| 20260504205902 | 21 | 268 | 9.7 | 14.5 | 0.00 | 0.00 | 0.00 | 25 | 1000.5 |
| 20260504205402 | 21 | 258 | 1.6 | 11.3 | 0.00 | 0.00 | 0.00 | 25 | 1000.6 |
| 20260504204901 | 21 | 267 | 4.8 | 20.9 | 0.00 | 0.00 | 0.00 | 24 | 1000.7 |
| 20260504204401 | 21 | 272 | 0.0 | 11.3 | 0.00 | 0.00 | 0.00 | 24 | 1000.7 |
| 20260504203402 | 21 | 317 | 1.6 | 12.9 | 0.00 | 0.00 | 0.00 | 25 | 1000.9 |
| 20260504202901 | 21 | 285 | 1.6 | 12.9 | 0.00 | 0.00 | 0.00 | 26 | 1001.0 |
| 20260504202402 | 21 | 341 | 0.0 | 0.0 | 0.00 | 0.00 | 0.00 | 27 | 1001.1 |
| 20260504201902 | 21 | 310 | 4.8 | 14.5 | 0.00 | 0.00 | 0.00 | 26 | 1001.3 |
| 20260504200902 | 21 | 286 | 1.6 | 9.7 | 0.00 | 0.00 | 0.00 | 27 | 1001.4 |
| 20260504200401 | 21 | 224 | 1.6 | 11.3 | 0.00 | 0.00 | 0.00 | 26 | 1001.5 |
| 20260504195902 | 21 | 248 | 4.8 | 14.5 | 0.00 | 0.00 | 0.00 | 28 | 1001.5 |
| 20260504195402 | 20 | 255 | 4.8 | 14.5 | 0.00 | 0.00 | 0.00 | 29 | 1001.6 |
| 20260504193901 | 20 | 270 | 3.2 | 22.5 | 0.00 | 0.00 | 0.00 | 31 | 1001.7 |
| 20260504193401 | 20 | 246 | 9.7 | 24.1 | 0.00 | 0.00 | 0.00 | 31 | 1001.7 |
| 20260504192901 | 20 | 265 | 8.0 | 24.1 | 0.00 | 0.00 | 0.00 | 31 | 1001.8 |
| 20260504192402 | 20 | 281 | 8.0 | 24.1 | 0.00 | 0.00 | 0.00 | 31 | 1001.8 |
| 20260504191901 | 20 | 315 | 8.0 | 16.1 | 0.00 | 0.00 | 0.00 | 30 | 1001.7 |
| 20260504190901 | 20 | 305 | 4.8 | 11.3 | 0.00 | 0.00 | 0.00 | 28 | 1001.8 |
| 20260504190402 | 20 | 236 | 1.6 | 9.7 | 0.00 | 0.00 | 0.00 | 28 | 1001.9 |
| 20260504185902 | 20 | 270 | 1.6 | 9.7 | 0.00 | 0.00 | 0.00 | 27 | 1002.0 |
| 20260504185402 | 21 | 89 | 1.6 | 9.7 | 0.00 | 0.00 | 0.00 | 26 | 1002.0 |
| 20260504184901 | 21 | 289 | 0.0 | 4.8 | 0.00 | 0.00 | 0.00 | 25 | 1002.1 |
| 20260504184402 | 21 | 228 | 8.0 | 12.9 | 0.00 | 0.00 | 0.00 | 25 | 1002.2 |
| 20260504183902 | 21 | 256 | 3.2 | 9.7 | 0.00 | 0.00 | 0.00 | 25 | 1002.3 |
| 20260504182902 | 20 | 325 | 1.6 | 8.0 | 0.00 | 0.00 | 0.00 | 27 | 1002.6 |
| 20260504182401 | 18 | 22 | 0.0 | 8.0 | 0.00 | 0.00 | 0.00 | 28 | 1002.6 |
| 20260504181902 | 18 | 16 | 0.0 | 9.7 | 0.00 | 0.00 | 0.00 | 28 | 1002.6 |
| 20260504181402 | 18 | 24 | 0.0 | 1.6 | 0.00 | 0.00 | 0.00 | 27 | 1002.8 |
| 20260504175902 | 19 | 193 | 1.6 | 11.3 | 0.00 | 0.00 | 0.00 | 26 | 1003.0 |
| 20260504175401 | 20 | 218 | 1.6 | 11.3 | 0.00 | 0.00 | 0.00 | 28 | 1003.1 |
| 20260504174901 | 19 | 259 | 6.4 | 12.9 | 0.00 | 0.00 | 0.00 | 27 | 1003.1 |
| 20260504174401 | 19 | 228 | 1.6 | 8.0 | 0.00 | 0.00 | 0.00 | 28 | 1003.1 |
| 20260504173403 | 19 | 226 | 9.7 | 14.5 | 0.00 | 0.00 | 0.00 | 28 | 1003.2 |
| 20260504172901 | 20 | 190 | 4.8 | 14.5 | 0.00 | 0.00 | 0.00 | 28 | 1003.2 |
| 20260504172402 | 19 | 241 | 4.8 | 12.9 | 0.00 | 0.00 | 0.00 | 27 | 1003.3 |
| 20260504171902 | 20 | 227 | 3.2 | 9.7 | 0.00 | 0.00 | 0.00 | 27 | 1003.3 |
| 20260504170402 | 18 | 229 | 1.6 | 8.0 | 0.00 | 0.00 | 0.00 | 30 | 1003.6 |
| 20260504160402 | 16 | 224 | 4.8 | 14.5 | 0.00 | 0.00 | 0.00 | 38 | 1004.2 |
| 20260504150902 | 15 | 199 | 0.0 | 1.6 | 0.00 | 0.00 | 0.00 | 43 | 1004.7 |
| 20260504150401 | 15 | 199 | 0.0 | 0.0 | 0.00 | 0.00 | 0.00 | 44 | 1004.8 |